Location: Chadiot
(45.1047°N, 1.9039°E)
Time: 22:37:55
(UTC+00:00)

Daily predictions for brighter satellites

Satellite Brightness Start Highest point End
(mag) Time Altitude Azimuth Time Altitude Azimuth Time Altitude Azimuth
NOSS 3-2 (C) 4.5 17:59:14 10° NNW 18:06:18 46° NE 18:14:15 10° ESE
Cosmos 1844 4.5 18:04:45 10° SSE 18:09:36 30° ESE 18:14:26 10° NE
ISS -2.9 18:06:52 10° W 18:10:09 48° NNW 18:13:27 10° NE
Cosmos 1300 Rocket 3.9 18:14:46 10° SSE 18:18:55 42° E 18:23:07 10° NNE
Sich 1 Rocket 3.6 18:18:42 10° S 18:23:12 77° E 18:27:47 10° NNE
NOSS 2-2 (E) 4.4 18:20:40 10° WSW 18:24:02 42° NW 18:27:52 10° NNE
Cosmos 2298 Rocket 4.1 18:20:03 10° S 18:25:15 58° ESE 18:30:29 10° NNE
CENTAUR R/B 3.4 18:17:38 10° NNW 18:25:27 55° NE 18:34:01 10° ESE
Cosmos 1975 4.3 18:22:38 10° SSW 18:26:31 42° WNW 18:30:25 10° N
Cosmos 1833 Rocket 4.5 18:23:19 10° N 18:26:37 16° NE 18:29:56 10° ENE
Iridium 4 Rocket 4.2 18:22:29 10° SSW 18:27:36 65° W 18:33:13 10° N
CSL-04 Debris 4.2 18:24:34 10° SSE 18:29:52 62° ENE 18:35:12 10° N
Helios 1A Rocket 4.0 18:27:42 10° S 18:31:41 50° W 18:35:44 10° NNW
CSL-04 Rocket 3.7 18:26:28 10° SSE 18:31:49 62° ENE 18:37:17 10° N
ATLAS 2AS CENTAUR R/B 3.7 18:26:28 10° S 18:33:13 32° ESE 18:40:00 10° NE
Okean 2 Rocket 3.1 18:29:00 10° S 18:33:25 62° E 18:37:51 10° NNE
NOSS 2-2 (D) 4.4 18:30:32 10° WSW 18:33:54 42° NW 18:37:40 10° NNE
YAOGAN 1 2.6 18:30:05 10° SSE 18:34:24 89° WSW 18:38:46 10° NNW
Cosmos 1025 Rocket 3.1 18:30:36 10° N 18:34:57 58° ENE 18:39:17 10° SSE
ATLAS 3B R/B 3.8 18:31:35 10° NNW 18:37:21 28° NNE 18:42:35 12° E
Abrixas rocket 2.1 18:37:31 10° WNW 18:40:20 57° NNE 18:42:11 19° E
Cosmos 1513 Rocket 4.4 18:34:43 10° S 18:40:56 76° E 18:47:05 10° N
CREW DRAGON DEMO-1 DEB 3.3 18:39:26 10° NW 18:42:22 47° NNE 18:44:16 19° E
Cosmos 1536 Rocket 3.7 18:40:20 10° N 18:44:44 55° ENE 18:49:08 10° SSE
Cosmos 1125 Rocket 3.6 18:40:45 10° S 18:45:53 54° ESE 18:51:05 10° NNE
SJ-6B 4.0 18:48:31 18° E 18:49:51 22° ENE 18:52:50 10° NNE
CZ-4 R/B 2.6 18:47:59 10° S 18:52:03 47° W 18:56:05 10° NNW
Cosmos 2150 Rocket 4.1 18:47:24 10° SSW 18:52:48 90° NW 18:58:18 10° NNE
SJ-11-01 4.2 18:48:21 10° SSE 18:53:04 84° ENE 18:57:46 10° NNW
CZ-2C R/B 3.3 18:48:45 10° S 18:54:06 80° WSW 18:59:47 10° NNW
Cosmos 1464 Rocket 4.0 18:48:09 10° S 18:54:17 89° W 19:00:31 10° N
USA 238 DEB 3.9 18:47:37 10° NW 18:54:53 85° SW 19:02:25 10° SSE
USA 238 3.9 18:47:44 10° NW 18:55:00 86° SW 19:02:32 10° SSE
Okean-O 4.1 18:51:47 10° SSW 18:55:56 39° W 19:00:07 10° NNW
Cosmos 2285 Rocket 4.1 18:50:28 10° S 18:56:35 55° ESE 19:02:46 10° NNE
Cosmos 1674 2.9 18:53:22 10° N 18:57:06 47° ENE 19:00:17 13° SSE
Cosmos 1092 Rocket 4.3 18:52:12 10° N 18:58:05 44° ENE 19:04:00 10° SSE
FREGAT/IRIS 4.3 19:04:41 16° NE 19:04:41 16° NE 19:05:37 10° NNE
MOS 1 Rocket 2.9 18:59:26 10° NNE 19:03:48 76° E 19:08:05 10° S
TSX-5 4.3 19:04:15 10° S 19:07:47 40° ESE 19:12:13 10° NE
ARGOS 3.1 19:04:21 10° SSE 19:09:42 83° ENE 19:15:07 10° NNW
Cosmos 1048 Rocket 4.4 19:07:13 10° NNW 19:12:31 66° WSW 19:17:49 10° S
Cosmos 1340 Rocket 4.3 19:15:11 21° ENE 19:15:11 21° ENE 19:17:05 10° NE
CZ-2C R/B 2.9 19:08:43 10° NNE 19:14:06 47° E 19:19:30 10° S
Cosmos 1733 3.5 19:13:47 27° SE 19:15:21 41° E 19:18:58 10° NNE
Cosmos 2151 Rocket 4.0 19:11:40 10° SSW 19:16:06 66° W 19:20:36 10° N
HJ-1C 4.5 19:13:35 10° S 19:16:44 44° W 19:19:56 10° NNW
MOS 1 4.4 19:13:05 18° SE 19:17:10 54° ENE 19:22:43 10° N
Lacrosse 5 rocket 3.6 19:15:10 10° NW 19:18:16 18° N 19:20:43 13° NE
Cosmos 2082 Rocket 3.6 19:15:46 10° N 19:20:00 21° NE 19:21:17 20° ENE
Shenzhou-11 Module 3.9 19:20:05 10° SW 19:20:33 14° SW 19:20:33 14° SW
BREEZE-M DEB (TANK) 3.4 19:19:13 10° WNW 19:22:26 59° SSW 19:27:36 21° SE
BREEZE-M R/B 4.1 19:10:56 10° WSW 19:22:42 83° NNW 19:24:25 30° ENE
DMSP B5D2-2 4.3 19:18:49 10° NNE 19:23:57 48° E 19:29:01 10° S
Cosmos 494 Rocket 4.1 19:20:03 10° NNW 19:25:20 77° WSW 19:29:53 14° SSE
Meteor 1-15 Rocket 4.2 19:21:06 10° S 19:26:45 86° W 19:32:33 10° N
Cosmos 1805 3.1 19:23:19 10° S 19:27:13 83° E 19:31:10 10° N
OBJECT-B 2.5 19:28:48 22° NNE 19:28:48 22° NNE 19:30:24 10° N
Milstar 3 Cent rocket 4.1 19:27:07 10° SW 19:31:06 16° S 19:32:39 14° SSE
Ariane Rocket 2.9 19:28:06 21° SSE 19:31:34 79° ENE 19:36:40 10° NNW
SL-08 RB Rocket 3.7 19:27:52 15° SSE 19:31:38 83° WSW 19:36:12 10° NNW
H-2A R/B 3.0 19:28:20 10° S 19:33:06 46° W 19:38:03 10° NNW
USA 234 4.3 19:38:13 24° SSE 19:38:13 24° SSE 19:41:46 10° S
Cosmos 1269 Rocket 3.9 19:31:58 10° NNW 19:37:18 77° ENE 19:39:33 35° SSE
KORONAS-FOTON 4.5 19:34:46 10° NNW 19:38:38 55° W 19:41:31 17° S
Cosmos 1626 2.2 19:38:43 10° N 19:42:02 61° NE 19:42:02 61° NE
MetOp-A 4.0 19:40:20 30° SSE 19:43:06 79° ENE 19:48:29 10° NNW
USA 186 2.4 19:42:34 45° SW 19:43:11 54° W 19:46:26 10° NNW
Cosmos 1844 Rocket 3.9 19:40:38 10° SW 19:45:53 42° WNW 19:51:12 10° NNE
COSMOS 2406 3.2 19:40:49 10° NNW 19:46:29 64° ENE 19:47:55 47° ESE
ISS -2.0 19:44:35 10° WNW 19:47:29 26° N 19:47:46 25° N
Cosmos 2278 Rocket 2.8 19:44:28 10° S 19:51:32 36° ENE 19:55:16 10° NE
Lacrosse 4 Rocket 2.9 19:50:17 10° N 19:52:52 25° NNE 19:52:52 25° NNE
Meteor 1-22 Rocket 4.2 19:48:43 10° S 19:54:36 82° E 20:00:43 10° NNE
Meteor 2-5 Rocket 3.9 19:51:13 10° NNW 19:56:53 71° W 20:00:46 21° S
Exosat Rocket 4.3 19:52:42 10° SW 19:57:55 51° WNW 20:02:49 10° NNE
Meteor 1-24 Rocket 3.7 19:53:37 10° NNW 19:59:14 87° W 20:01:37 37° S
Okean 1 Rocket 4.0 19:55:31 10° SSW 19:59:51 49° WNW 20:04:15 10° N
NOSS 3-4 (A) 3.4 19:55:06 10° SW 20:01:00 78° NW 20:07:21 10° NE
NOSS 3-4 (C) 3.4 19:55:12 10° SW 20:01:06 79° NW 20:07:27 10° NE
Resurs 01 Rocket 2.4 20:03:26 40° NNE 20:03:26 40° NNE 20:06:39 10° N
SL-14 R/B 3.5 19:58:25 10° N 20:01:55 67° NNW 20:01:55 67° NNW
Meteor 2-19 Rocket 4.5 19:57:24 10° N 20:03:25 55° ENE 20:03:47 54° E
Cosmos 1833 Rocket 2.5 20:05:54 10° NNW 20:11:35 74° ENE 20:11:54 72° E
Cosmos 2251 Rocket 4.1 20:09:18 10° N 20:13:44 44° NE 20:13:44 44° NE
CENTAUR R/B 3.9 20:08:31 10° NW 20:16:20 48° WSW 20:22:00 21° S
ARIANE 5 R/B 4.3 20:20:05 24° NNE 20:20:05 24° NNE 20:22:00 10° N
SPOT 3 Rocket 3.4 20:20:50 82° SW 20:20:56 83° WSW 20:26:08 10° NNW
Cosmos 1634 Rocket 4.4 20:17:04 10° SSW 20:23:07 59° WNW 20:29:16 10° N
ATLAS 2AS CENTAUR R/B 3.2 20:15:49 10° SW 20:23:45 70° NW 20:31:38 10° NE
Resurs 1-3 4.2 20:26:18 54° WNW 20:26:18 54° WNW 20:30:03 10° NNW
ATLAS 3B R/B 2.6 20:22:00 10° NW 20:28:55 89° NE 20:29:50 70° SE
Cosmos 1892 Rocket 4.4 20:25:12 10° NNW 20:28:36 47° NW 20:28:36 47° NW
Cosmos 1655 Rocket 3.9 20:31:53 10° N 20:37:50 77° NE 20:37:50 77° NE
Lacrosse 5 rocket 3.6 20:54:15 10° NW 20:56:20 24° NNW 20:56:20 24° NNW
Cosmos 2098 Rocket 4.3 20:56:01 10° NNW 21:01:45 60° NW 21:01:45 60° NW
Cosmos 2082 Rocket 3.0 20:59:04 10° NNW 21:03:08 48° NW 21:03:08 48° NW
Terra 4.3 21:21:44 15° N 21:21:44 15° N 21:22:38 10° N
Cosmos 2278 Rocket 3.8 21:33:00 28° WNW 21:34:08 30° NW 21:39:07 10° N
